Location: Izdebno
(52.6670°N, 16.2170°E)
Time: 06:57:40
(UTC+02:00)

Vanguard 2 Rocket - Pass Details

Date: 03 March 2024
Orbit: 555 x 3307 km, 32.9° (Epoch: 24 April)

Event Time Altitude Azimuth Distance (km) Brightness Sun altitude
Rises 18:29:11 0° 257° (WSW) 5,281 12.7 -8.5°
Reaches altitude 10° 18:35:20 10° 233° (SW) 4,889 11.4 -9.4°
Maximum altitude 18:40:49 13° 210° (SSW) 5,078 11.1 -10.2°
Drops below altitude 10° 18:47:10 10° 188° (S) 5,767 11.0 -11.2°
Sets 18:56:17 0° 167° (SSE) 7,173 11.3 -12.6°
